DB0LC-2 Weather Reports


Display with metric or nautical units.
time (UTC)temp
F
wind
direction
speed
MPH
gust
MPH
rain 1hr
in
rain 24hr
in
rain mn
in
humidity
%
barometer
mb
20260508033148 67 0 0.0 0.0 0.00 0.00 0.00 34 910.8
20260508031023 68 0 0.0 0.0 0.00 0.00 0.00 33 910.7
20260508025959 68 0 0.0 0.0 0.00 0.00 0.00 33 910.7
20260508024932 67 0 0.0 0.0 0.00 0.00 0.00 34 910.8
20260508023857 67 0 0.0 0.0 0.00 0.00 0.00 34 910.8
20260508022833 67 0 0.0 0.0 0.00 0.00 0.00 33 910.8
20260508021730 68 0 0.0 0.0 0.00 0.00 0.00 33 910.8
20260508015645 67 0 0.0 0.0 0.00 0.00 0.00 34 910.8
20260508015642 67 0 0.0 0.0 0.00 0.00 0.00 34 910.8
20260508012541 68 0 0.0 0.0 0.00 0.00 0.00 33 910.8
20260508012539 68 0 0.0 0.0 0.00 0.00 0.00 33 911.0
20260508011502 68 0 0.0 0.0 0.00 0.00 0.00 33 910.9
20260508010438 67 0 0.0 0.0 0.00 0.00 0.00 34 910.9
20260508005359 67 0 0.0 0.0 0.00 0.00 0.00 34 910.7
20260508004327 67 0 0.0 0.0 0.00 0.00 0.00 34 910.8
20260508003314 68 0 0.0 0.0 0.00 0.00 0.00 33 910.8
20260508002316 68 0 0.0 0.0 0.00 0.00 0.00 33 910.9
20260508002314 68 0 0.0 0.0 0.00 0.00 0.00 33 911.0
20260508001249 68 0 0.0 0.0 0.00 0.00 0.00 34 910.9
20260508000250 67 0 0.0 0.0 0.00 0.00 0.00 34 911.0
20260507235239 66 0 0.0 0.0 0.00 0.00 0.00 33 911.0
20260507234213 67 0 0.0 0.0 0.00 0.00 0.00 31 911.1
20260507233205 68 0 0.0 0.0 0.00 0.00 0.00 33 911.2
20260507232125 67 0 0.0 0.0 0.00 0.00 0.00 33 911.3
20260507231034 67 0 0.0 0.0 0.00 0.00 0.00 34 911.3
20260507225029 68 0 0.0 0.0 0.00 0.00 0.00 32 911.5
20260507225027 68 0 0.0 0.0 0.00 0.00 0.00 32 911.6
20260507224011 68 0 0.0 0.0 0.00 0.00 0.00 33 911.6
20260507222958 68 0 0.0 0.0 0.00 0.00 0.00 33 911.4
20260507221923 67 0 0.0 0.0 0.00 0.00 0.00 34 911.7
20260507220910 66 0 0.0 0.0 0.00 0.00 0.00 33 911.6
20260507215858 68 0 0.0 0.0 0.00 0.00 0.00 32 911.6
20260507214836 68 0 0.0 0.0 0.00 0.00 0.00 33 911.6
20260507214833 68 0 0.0 0.0 0.00 0.00 0.00 33 911.6
20260507213833 68 0 0.0 0.0 0.00 0.00 0.00 34 911.7
20260507212823 67 0 0.0 0.0 0.00 0.00 0.00 34 911.6
20260507211743 67 0 0.0 0.0 0.00 0.00 0.00 33 911.8
20260507210732 68 0 0.0 0.0 0.00 0.00 0.00 31 911.7
20260507205706 68 0 0.0 0.0 0.00 0.00 0.00 33 911.6
20260507204634 67 0 0.0 0.0 0.00 0.00 0.00 34 911.6
20260507204631 67 0 0.0 0.0 0.00 0.00 0.00 34 911.6
20260507202553 67 0 0.0 0.0 0.00 0.00 0.00 33 911.7
20260507201517 68 0 0.0 0.0 0.00 0.00 0.00 33 911.6
20260507200445 68 0 0.0 0.0 0.00 0.00 0.00 33 911.6
20260507195414 67 0 0.0 0.0 0.00 0.00 0.00 33 911.7
20260507194349 67 0 0.0 0.0 0.00 0.00 0.00 34 911.7
20260507193355 67 0 0.0 0.0 0.00 0.00 0.00 32 911.5
20260507192336 68 0 0.0 0.0 0.00 0.00 0.00 33 911.5
20260507191300 68 0 0.0 0.0 0.00 0.00 0.00 33 911.4
20260507185223 67 0 0.0 0.0 0.00 0.00 0.00 33 911.1
20260507184203 68 0 0.0 0.0 0.00 0.00 0.00 32 911.0
20260507183146 68 0 0.0 0.0 0.00 0.00 0.00 33 911.0
20260507182142 67 0 0.0 0.0 0.00 0.00 0.00 33 910.9
20260507181123 67 0 0.0 0.0 0.00 0.00 0.00 33 910.9
20260507175019 68 0 0.0 0.0 0.00 0.00 0.00 33 910.8
20260507173956 68 0 0.0 0.0 0.00 0.00 0.00 33 910.7
20260507171924 67 0 0.0 0.0 0.00 0.00 0.00 34 910.7
20260507170910 68 0 0.0 0.0 0.00 0.00 0.00 30 910.6
20260507165842 68 0 0.0 0.0 0.00 0.00 0.00 33 910.5
20260507164832 67 0 0.0 0.0 0.00 0.00 0.00 33 910.6
20260507163818 67 0 0.0 0.0 0.00 0.00 0.00 34 910.6
20260507161754 68 0 0.0 0.0 0.00 0.00 0.00 33 910.4
20260507160745 68 0 0.0 0.0 0.00 0.00 0.00 33 910.5
20260507154731 67 0 0.0 0.0 0.00 0.00 0.00 33 910.5
20260507153733 67 0 0.0 0.0 0.00 0.00 0.00 30 910.5
20260507152726 68 0 0.0 0.0 0.00 0.00 0.00 33 910.5
20260507151704 68 0 0.0 0.0 0.00 0.00 0.00 33 910.3
20260507150705 67 0 0.0 0.0 0.00 0.00 0.00 33 910.4
20260507145654 67 0 0.0 0.0 0.00 0.00 0.00 33 910.4
20260507143534 68 0 0.0 0.0 0.00 0.00 0.00 910.4
20260507143532 68 0 0.0 0.0 0.00 0.00 0.00 33 910.4
20260507141432 67 0 0.0 0.0 0.00 0.00 0.00 34 910.6
20260507140416 67 0 0.0 0.0 0.00 0.00 0.00 33 910.4
20260507135404 68 0 0.0 0.0 0.00 0.00 0.00 32 910.5
20260507134349 68 0 0.0 0.0 0.00 0.00 0.00 33 910.5
20260507133343 68 0 0.0 0.0 0.00 0.00 0.00 33 910.5
20260507132336 67 0 0.0 0.0 0.00 0.00 0.00 33 910.7
20260507130228 67 0 0.0 0.0 0.00 0.00 0.00 33 910.5
20260507124147 68 0 0.0 0.0 0.00 0.00 0.00 33 910.6
20260507123148 67 0 0.0 0.0 0.00 0.00 0.00 33 910.6
20260507122116 67 0 0.0 0.0 0.00 0.00 0.00 34 910.4
20260507121042 67 0 0.0 0.0 0.00 0.00 0.00 33 910.5
20260507120028 68 0 0.0 0.0 0.00 0.00 0.00 33 910.5
20260507115028 68 0 0.0 0.0 0.00 0.00 0.00 33 910.4
20260507114020 68 0 0.0 0.0 0.00 0.00 0.00 33 910.6
20260507113006 67 0 0.0 0.0 0.00 0.00 0.00 33 910.5
20260507111007 68 0 0.0 0.0 0.00 0.00 0.00 32 910.6
20260507105917 68 0 0.0 0.0 0.00 0.00 0.00 33 910.7
20260507103826 67 0 0.0 0.0 0.00 0.00 0.00 33 910.6
20260507102819 67 0 0.0 0.0 0.00 0.00 0.00 33 910.7
20260507101739 66 0 0.0 0.0 0.00 0.00 0.00 33 910.7
20260507100740 68 0 0.0 0.0 0.00 0.00 0.00 29 910.8
20260507095725 68 0 0.0 0.0 0.00 0.00 0.00 33 910.8
20260507094714 68 0 0.0 0.0 0.00 0.00 0.00 33 910.7
20260507093651 67 0 0.0 0.0 0.00 0.00 0.00 33 910.7
20260507092639 67 0 0.0 0.0 0.00 0.00 0.00 33 910.6
20260507091614 67 0 0.0 0.0 0.00 0.00 0.00 32 910.5
20260507090602 68 0 0.0 0.0 0.00 0.00 0.00 32 910.4
20260507085602 68 0 0.0 0.0 0.00 0.00 0.00 33 910.4
20260507084551 68 0 0.0 0.0 0.00 0.00 0.00 33 910.4
20260507083537 67 0 0.0 0.0 0.00 0.00 0.00 33 910.4
20260507082516 66 0 0.0 0.0 0.00 0.00 0.00 33 910.3
20260507082513 66 0 0.0 0.0 0.00 0.00 0.00 33 910.3
20260507075412 68 0 0.0 0.0 0.00 0.00 0.00 33 910.1
20260507074407 67 0 0.0 0.0 0.00 0.00 0.00 33 910.3
20260507073336 67 0 0.0 0.0 0.00 0.00 0.00 33 910.1
20260507072326 66 0 0.0 0.0 0.00 0.00 0.00 33 910.1
20260507071259 67 0 0.0 0.0 0.00 0.00 0.00 31 909.9
20260507065210 68 0 0.0 0.0 0.00 0.00 0.00 33 909.8
20260507064157 67 0 0.0 0.0 0.00 0.00 0.00 33 909.7
20260507063132 67 0 0.0 0.0 0.00 0.00 0.00 33 909.6
20260507062118 66 0 0.0 0.0 0.00 0.00 0.00 33 909.6
20260507061107 68 0 0.0 0.0 0.00 0.00 0.00 30 909.5
20260507060059 68 0 0.0 0.0 0.00 0.00 0.00 32 909.3
20260507055043 68 0 0.0 0.0 0.00 0.00 0.00 33 909.4
20260507054020 67 0 0.0 0.0 0.00 0.00 0.00 33 909.3
20260507052954 67 0 0.0 0.0 0.00 0.00 0.00 33 909.3
20260507051933 66 0 0.0 0.0 0.00 0.00 0.00 32 909.2
20260507051931 66 0 0.0 0.0 0.00 0.00 0.00 32 909.2
20260507050912 68 0 0.0 0.0 0.00 0.00 0.00 32 908.9
20260507045905 68 0 0.0 0.0 0.00 0.00 0.00 32 908.9
20260507044829 68 0 0.0 0.0 0.00 0.00 0.00 32 908.7
20260507042815 67 0 0.0 0.0 0.00 0.00 0.00 33 908.6
20260507041806 66 0 0.0 0.0 0.00 0.00 0.00 33 908.6
20260507034727 67 0 0.0 0.0 0.00 0.00 0.00 33 908.3